Voltar ao catálogo

FENGYUN 1C DEB

AtivoSSO
NORAD 30740·DEBRIS·🇨🇳 China

Lançado May 10, 1999 de Taiyuan Satellite Launch Center

Loading…

Próximas Passagens (próximas 24 horas)

TLE

AtualizadoSource: Space-Track

Época: Sep 13, 2026, 07:03 UTC

1 30740U 99025ATA 26256.29429919  .00004926  00000-0  11077-2 0  9994
2 30740  98.6987  17.1183 0027805  19.6419 340.5843 14.56708862 16311

Acompanhe FENGYUN 1C DEB em tempo real com AllMySat

Download on the App Store